DateTimeUTC,F1_A11,F1_S11,BsB_S11,BsG_S11,BsR_S11,BbsB_S11,BbsG_S11,BbsR_S11,BaB_A11,BaG_A11,BaR_A11,Tu_S11,T_S11,Uu_S11,U_S11,P_S11,T1_A11
2021-08-29T03:00:00Z,00000200,20000000,,,,,,,-000.16,-000.24,0000.24,18.6,25.6,05.4,03.5,0667.3,31.0
2021-08-29T03:01:00Z,00000200,20000000,,,,,,,0000.10,0000.25,-000.25,18.6,25.6,05.4,03.5,0667.3,31.0
2021-08-29T03:02:00Z,00000200,20000000,,,,,,,0000.19,-000.10,0000.01,18.6,25.6,05.4,03.5,0667.3,31.0
2021-08-29T03:03:00Z,00000200,60000000,,,,,,,0000.03,0000.34,0000.30,18.6,25.6,05.4,03.5,0667.3,31.0
2021-08-29T03:04:00Z,00000200,40000000,0001.73,0000.95,0000.85,0000.54,0000.04,0000.17,0000.08,-000.17,0000.04,18.7,25.4,05.5,03.6,0668.2,31.0
2021-08-29T03:05:00Z,00000200,00000000,0002.14,0000.99,0000.68,0000.27,0000.01,-000.12,0000.13,0000.42,-000.01,18.8,25.3,05.5,03.7,0668.3,31.0
2021-08-29T03:06:00Z,00000200,00000000,0001.68,0000.92,0000.68,0000.22,-000.08,0000.25,0000.31,0000.08,0000.55,18.8,25.3,05.5,03.7,0668.3,31.0
2021-08-29T03:07:00Z,00000200,00000000,0001.94,0000.68,0000.63,0000.32,0000.13,0000.18,0000.16,-000.20,-000.16,18.8,25.3,05.5,03.7,0668.3,31.0
2021-08-29T03:08:00Z,00000200,00000000,0000.69,0000.68,0000.29,-000.03,-000.09,-000.10,0000.14,0000.29,0000.06,18.8,25.3,05.4,03.6,0668.3,31.0
2021-08-29T03:09:00Z,00000200,00000000,0001.80,0000.83,0000.72,-000.05,-000.14,0000.22,0000.01,-000.06,-000.03,18.8,25.3,05.5,03.7,0668.3,31.0
2021-08-29T03:10:00Z,00000200,00000000,0001.65,0000.95,0000.95,0000.10,0000.02,0000.32,0000.02,0000.34,0000.69,18.8,25.3,05.4,03.6,0668.3,31.0
2021-08-29T03:11:00Z,00000200,00000000,0000.81,0000.79,0000.74,-000.37,0000.05,0000.13,0000.03,0000.02,-000.28,18.8,25.2,05.4,03.7,0668.3,31.0
2021-08-29T03:12:00Z,00000200,00000000,0001.43,0000.70,0000.35,0000.13,0000.37,0000.01,0000.32,0000.02,-000.09,18.8,25.2,05.4,03.6,0668.3,31.0
2021-08-29T03:13:00Z,00000200,00000000,0001.20,0000.71,0000.47,0000.30,0000.02,-000.03,-000.15,-000.03,0000.09,18.7,25.2,05.5,03.7,0668.3,31.0
2021-08-29T03:14:00Z,00000200,00000000,0000.65,0000.36,0000.24,0000.06,0000.10,0000.01,0000.24,-000.12,0000.18,18.7,25.2,05.4,03.6,0668.3,31.0
2021-08-29T03:15:00Z,00000200,00000000,0001.03,0000.72,0000.34,0000.09,0000.46,0000.07,0000.31,0000.45,0000.30,18.8,25.2,05.3,03.6,0668.3,31.0
2021-08-29T03:16:00Z,00000200,00000000,0001.37,0000.49,0000.37,0000.10,0000.04,0000.40,-000.14,-000.03,0000.03,18.9,25.2,05.3,03.6,0668.3,31.0
2021-08-29T03:17:00Z,00000200,00000000,0000.61,0000.76,0000.45,0000.15,0000.38,0000.44,0000.15,0000.29,-000.06,19.0,25.3,05.2,03.5,0668.3,31.1
2021-08-29T03:18:00Z,00000200,00000000,0001.94,0000.64,0000.57,0000.57,0000.06,0000.46,0000.15,0000.26,0000.46,19.0,25.4,05.2,03.6,0668.3,31.1
2021-08-29T03:19:00Z,00000200,00000000,0001.99,0000.81,0000.54,-000.03,0000.05,0000.08,-000.11,-000.02,-000.43,19.1,25.4,05.3,03.6,0668.3,31.1
2021-08-29T03:20:00Z,00000200,00000000,0001.11,0000.80,0000.29,0000.03,-000.04,0000.03,0000.13,-000.21,0000.01,19.1,25.4,05.2,03.6,0668.3,31.0
2021-08-29T03:21:00Z,00000200,00000000,0000.99,0000.59,0000.26,-000.30,0000.27,0000.17,-000.23,-000.15,0000.04,19.1,25.4,05.1,03.5,0668.3,31.1
2021-08-29T03:22:00Z,00000200,00000000,0000.19,0000.41,0000.32,-000.29,0000.10,0000.08,0000.24,-000.22,0000.13,19.0,25.4,05.2,03.5,0668.3,31.0
2021-08-29T03:23:00Z,00000200,00000000,0001.29,0000.21,0000.35,-000.34,-000.27,0000.12,-000.15,0000.21,-000.41,19.0,25.3,05.1,03.4,0668.3,31.0
2021-08-29T03:24:00Z,00000200,00000000,0001.11,0000.58,0000.40,0000.09,0000.23,0000.27,0000.01,0000.12,0000.46,19.0,25.3,05.1,03.5,0668.3,31.0
2021-08-29T03:25:00Z,00000200,00000000,0001.92,0000.67,0000.30,0000.55,0000.13,0000.16,0000.04,0000.04,-000.14,19.0,25.3,05.0,03.4,0668.4,31.0
2021-08-29T03:26:00Z,00000200,00000000,0000.49,0000.53,0000.64,0000.35,-000.05,0000.13,-000.04,-000.01,-000.00,19.0,25.3,05.1,03.4,0668.3,31.0
2021-08-29T03:27:00Z,00000200,00000000,0000.55,0000.22,0000.17,0000.14,-000.01,-000.01,0000.06,-000.27,-000.08,18.9,25.3,05.0,03.4,0668.3,31.0
2021-08-29T03:28:00Z,00000200,00000000,0000.54,0000.46,0000.48,-000.20,-000.16,0000.28,0000.30,0000.20,0000.09,18.9,25.3,05.0,03.4,0668.3,31.0
2021-08-29T03:29:00Z,00000200,00000000,0000.68,0000.39,0000.41,0000.39,0000.27,0000.17,-000.25,0000.21,0000.12,18.9,25.3,05.0,03.4,0668.3,31.0
2021-08-29T03:30:00Z,00000200,00000000,0000.68,0000.47,0000.24,-000.40,-000.15,0000.26,0000.01,0000.09,0000.45,18.9,25.3,05.0,03.4,0668.3,31.0
2021-08-29T03:31:00Z,00000200,00000000,0000.56,0000.20,0000.53,0000.43,0000.13,0000.28,0000.45,-000.23,-000.53,19.0,25.3,04.9,03.3,0668.3,31.0
2021-08-29T03:32:00Z,00000200,00000000,0000.65,0000.76,-000.06,0000.03,0000.39,0000.05,-000.36,0000.18,0000.02,19.0,25.4,04.9,03.3,0668.3,31.0
2021-08-29T03:33:00Z,00000200,00000000,0000.33,0000.73,0000.27,0000.14,0000.01,0000.11,0000.13,0000.04,0000.32,19.1,25.4,04.9,03.3,0668.3,31.0
2021-08-29T03:34:00Z,00000200,00000000,0001.27,-000.32,0000.41,0000.02,0000.29,0000.18,-000.39,-000.42,-000.15,19.1,25.4,04.8,03.3,0668.3,31.0
2021-08-29T03:35:00Z,00000200,00000000,0000.81,0000.63,0000.06,0000.59,0000.17,-000.10,0000.20,0000.29,-000.33,19.0,25.4,04.8,03.3,0668.3,31.0
2021-08-29T03:36:00Z,00000200,00000000,0001.31,0000.50,0000.35,0000.46,0000.06,0000.35,0000.01,0000.15,0000.22,19.0,25.3,04.8,03.3,0668.3,31.0
2021-08-29T03:37:00Z,00000200,00000000,0000.80,0000.41,0000.20,-000.50,0000.01,0000.18,0000.08,-000.13,-000.03,19.0,25.3,04.9,03.3,0668.3,31.0
2021-08-29T03:38:00Z,00000200,00000000,0001.45,0000.79,0000.23,0000.55,0000.11,0000.16,-000.26,-000.11,0000.23,19.0,25.3,04.9,03.3,0668.3,31.0
2021-08-29T03:39:00Z,00000200,00000000,0000.85,0000.20,0000.57,0000.71,0000.20,0000.25,0000.21,0000.03,-000.15,19.0,25.3,04.8,03.2,0668.3,31.0
2021-08-29T03:40:00Z,00000200,00000000,0000.64,0000.45,0000.34,0001.04,0000.18,0000.19,0000.41,0000.42,0000.18,18.9,25.3,04.8,03.3,0668.3,31.0
2021-08-29T03:41:00Z,00000200,00000000,0001.02,0000.45,0000.52,0000.09,0000.33,0000.31,-000.16,-000.42,-000.05,18.9,25.3,04.7,03.2,0668.2,31.0
2021-08-29T03:42:00Z,00000200,00000000,0001.43,0000.52,0000.53,-000.13,0000.00,0000.35,-000.17,0000.01,-000.25,18.9,25.3,04.8,03.3,0668.3,31.0
2021-08-29T03:43:00Z,00000200,00000000,0001.00,0000.22,0000.39,0000.39,-000.07,0000.10,-000.12,-000.02,0000.43,18.9,25.3,04.7,03.2,0668.3,31.0
2021-08-29T03:44:00Z,00000200,00000000,0000.66,0000.52,0000.12,0000.52,0000.16,-000.18,0000.13,0000.01,-000.05,18.9,25.3,04.7,03.2,0668.3,31.0
2021-08-29T03:45:00Z,00000200,00000000,0001.14,0000.59,0000.29,0001.14,0000.07,0000.02,-000.12,0000.27,-000.05,18.9,25.3,04.7,03.2,0668.3,31.0
2021-08-29T03:46:00Z,00000200,00000000,0000.82,0000.51,0000.18,0000.18,-000.19,0000.40,0000.39,-000.05,-000.26,18.9,25.3,04.7,03.2,0668.3,31.0
2021-08-29T03:47:00Z,00000200,00000000,0001.09,0000.43,0000.23,0000.72,0000.20,0000.11,-000.42,-000.15,0000.12,18.8,25.2,04.7,03.2,0668.3,31.0
2021-08-29T03:48:00Z,00000200,00000000,0001.18,0000.54,0000.70,-000.01,0000.08,0000.39,-000.08,-000.15,0000.08,18.8,25.2,04.7,03.2,0668.3,31.0
2021-08-29T03:49:00Z,00000200,00000000,0000.66,0000.30,0000.31,0000.12,-000.01,-000.10,0000.16,0000.23,-000.03,18.8,25.2,04.7,03.1,0668.3,31.0
2021-08-29T03:50:00Z,00000200,00000000,0000.31,0000.49,0000.19,-000.01,0000.20,0000.37,-000.06,-000.18,-000.39,18.8,25.2,04.5,03.1,0668.3,31.0
2021-08-29T03:51:00Z,00000200,00000000,0001.07,0000.62,0000.38,-000.18,0000.33,0000.15,0000.31,0000.03,-000.10,18.8,25.2,04.5,03.1,0668.3,31.0
2021-08-29T03:52:00Z,00000200,00000000,0000.78,0000.40,0000.66,0000.18,-000.19,0000.33,-000.11,-000.02,0000.47,18.8,25.2,04.5,03.0,0668.3,31.0
2021-08-29T03:53:00Z,00000200,00000000,0000.24,0000.43,0000.34,-000.30,-000.01,-000.04,-000.36,-000.16,-000.30,18.8,25.2,04.6,03.1,0668.3,31.0
2021-08-29T03:54:00Z,00000200,00000000,0000.78,0000.37,0000.41,0000.49,0000.27,0000.05,0000.37,0000.20,0000.27,18.8,25.2,04.6,03.1,0668.3,31.0
2021-08-29T03:55:00Z,00000200,00000000,0001.44,0000.83,0000.60,-000.04,0000.07,0000.31,0000.12,0000.07,-000.03,18.7,25.2,04.5,03.1,0668.3,31.0
2021-08-29T03:56:00Z,00000200,00000000,0001.70,0000.75,0000.22,0000.33,0000.36,0000.03,-000.56,-000.46,-000.14,18.7,25.2,04.5,03.1,0668.3,31.0
2021-08-29T03:57:00Z,00000200,40000000,,,,,,,0000.74,0000.93,0000.66,18.8,25.2,04.4,03.0,0668.3,31.0
2021-08-29T03:58:00Z,00000200,60000000,,,,,,,-000.51,-000.76,-000.71,18.4,25.3,04.7,03.1,0667.3,31.0
2021-08-29T03:59:00Z,00000200,20000000,,,,,,,0000.01,0000.17,0000.26,18.4,25.4,04.6,03.0,0667.3,31.0
